Tracking 35237 objects as of 5-Sep-2026
HD Live streaming from Space Station
objects crossing your sky now

COSMOS 1186 DEB


COSMOS 1186 DEB is no longer on orbit


NORAD ID: 11831
Int'l Code: 1980-047C
Launch date: June 6, 1980
Source: Commonwealth of Independent States (former USSR) (CIS)
Launch site: PLESETSK MISSILE AND SPACE COMPLEX (PKMTR)
Decay date: 1980-06-17

Note: This is SATELLITE DEBRIS
Your satellite tracking list
Your tracking list is empty




NASA's NSSDC Master Catalog

Two Line Element Set (TLE):
1 11831U 80047  C 80166.10250241  .00031342 +00000-0 +00430-3 0  9992
2 11831 074.0176 051.9514 0050859 335.1850 026.4169 15.29820824001176
Source of the keplerian elements: AFSPC